Location: Manchester NH
(43.0000°N, 71.5000°W)
Time: 18:12:05
(UTC-04:00)

Hubble Space Telescope - Visible Passes

Search period start: 17 October 2017 00:00
Search period end: 27 October 2017 00:00
Orbit: 537 x 541 km, 28.5° (Epoch: 17 October)

Date Brightness Start Highest point End Pass type
(mag) Time Alt. Az. Time Alt. Az. Time Alt. Az.
24 Oct 3.3 19:50:10 10° SSW 19:50:53 11° S 19:50:53 11° S visible
25 Oct 3.3 19:39:56 10° SSW 19:40:45 10° S 19:41:16 10° S visible
26 Oct 3.4 19:30:04 10° S 19:30:24 10° S 19:30:45 10° S visible
